| time (UTC) | temp F | wind direction | speed MPH | gust MPH | rain 1hr in | rain 24hr in | rain mn in | humidity % | barometer mb |
| 20260504050709 | 46 | 130 | 0.0 | 1.0 | 0.00 | 0.00 | 0.00 | 90 | 1018.8 |
| 20260504050206 | 46 | 130 | 0.0 | 0.0 | 0.00 | 0.00 | 0.00 | 89 | 1019.1 |
| 20260504045703 | 46 | 130 | 0.0 | 1.0 | 0.00 | 0.00 | 0.00 | 90 | 1018.9 |
| 20260504045203 | 46 | 130 | 0.0 | 1.0 | 0.00 | 0.00 | 0.00 | 88 | 1019.0 |
| 20260504044702 | 46 | 130 | 0.0 | 0.0 | 0.00 | 0.00 | 0.00 | 86 | 1018.8 |
| 20260504044159 | 46 | 130 | 0.0 | 0.0 | 0.00 | 0.00 | 0.00 | 85 | 1018.6 |
| 20260504043655 | 46 | 130 | 0.0 | 1.0 | 0.00 | 0.00 | 0.00 | 83 | 1018.5 |
| 20260504043152 | 47 | 130 | 1.0 | 1.0 | 0.00 | 0.00 | 0.00 | 84 | 1018.4 |
| 20260504042650 | 47 | 130 | 2.0 | 2.0 | 0.00 | 0.00 | 0.00 | 83 | 1018.5 |
| 20260504042146 | 46 | 135 | 0.0 | 0.0 | 0.00 | 0.00 | 0.00 | 81 | 1018.4 |
| 20260504041642 | 46 | 135 | 0.0 | 0.0 | 0.00 | 0.00 | 0.00 | 82 | 1018.2 |
| 20260504041138 | 46 | 135 | 0.0 | 0.0 | 0.00 | 0.00 | 0.00 | 82 | 1018.3 |
| 20260504040636 | 46 | 135 | 0.0 | 0.0 | 0.00 | 0.00 | 0.00 | 82 | 1018.3 |
| 20260504040132 | 46 | 135 | 0.0 | 0.0 | 0.00 | 0.00 | 0.00 | 84 | 1018.2 |
| 20260504035629 | 46 | 135 | 0.0 | 0.0 | 0.00 | 0.00 | 0.00 | 83 | 1018.3 |
| 20260504035126 | 46 | 135 | 0.0 | 0.0 | 0.00 | 0.00 | 0.00 | 83 | 1018.3 |
| 20260504034624 | 46 | 135 | 0.0 | 0.0 | 0.00 | 0.00 | 0.00 | 81 | 1018.4 |
| 20260504034120 | 46 | 135 | 0.0 | 0.0 | 0.00 | 0.00 | 0.00 | 80 | 1018.4 |
| 20260504033618 | 46 | 135 | 0.0 | 0.0 | 0.00 | 0.00 | 0.00 | 84 | 1018.3 |
| 20260504033115 | 46 | 135 | 0.0 | 0.0 | 0.00 | 0.00 | 0.00 | 82 | 1018.4 |
| 20260504032612 | 46 | 135 | 0.0 | 0.0 | 0.00 | 0.00 | 0.00 | 82 | 1018.3 |
| 20260504032109 | 46 | 135 | 0.0 | 0.0 | 0.00 | 0.00 | 0.00 | 82 | 1018.3 |
| 20260504031606 | 46 | 135 | 0.0 | 0.0 | 0.00 | 0.00 | 0.00 | 83 | 1018.2 |
| 20260504031102 | 46 | 135 | 0.0 | 0.0 | 0.00 | 0.00 | 0.00 | 82 | 1018.2 |
| 20260504030559 | 46 | 135 | 0.0 | 0.0 | 0.00 | 0.00 | 0.00 | 82 | 1018.2 |
| 20260504030055 | 46 | 135 | 0.0 | 0.0 | 0.00 | 0.00 | 0.00 | 83 | 1018.3 |
| 20260504025553 | 46 | 135 | 0.0 | 0.0 | 0.00 | 0.00 | 0.00 | 82 | 1018.3 |
| 20260504025049 | 46 | 135 | 0.0 | 0.0 | 0.00 | 0.00 | 0.00 | 84 | 1018.2 |
| 20260504024547 | 45 | 135 | 0.0 | 0.0 | 0.00 | 0.00 | 0.00 | 82 | 1018.3 |
| 20260504024043 | 45 | 135 | 0.0 | 0.0 | 0.00 | 0.00 | 0.00 | 83 | 1018.1 |
| 20260504023540 | 45 | 135 | 0.0 | 0.0 | 0.00 | 0.00 | 0.00 | 83 | 1018.0 |
| 20260504023036 | 45 | 135 | 0.0 | 0.0 | 0.00 | 0.00 | 0.00 | 83 | 1018.3 |
| 20260504022532 | 45 | 135 | 0.0 | 0.0 | 0.00 | 0.00 | 0.00 | 83 | 1018.2 |
| 20260504022029 | 45 | 135 | 0.0 | 0.0 | 0.00 | 0.00 | 0.00 | 82 | 1018.2 |
| 20260504021526 | 45 | 135 | 0.0 | 0.0 | 0.00 | 0.00 | 0.00 | 80 | 1018.1 |
| 20260504021023 | 46 | 135 | 0.0 | 0.0 | 0.00 | 0.00 | 0.00 | 81 | 1018.1 |
| 20260504020520 | 46 | 135 | 0.0 | 0.0 | 0.00 | 0.00 | 0.00 | 82 | 1018.0 |
| 20260504020016 | 46 | 135 | 0.0 | 0.0 | 0.00 | 0.00 | 0.00 | 81 | 1018.2 |
| 20260504015513 | 46 | 135 | 0.0 | 0.0 | 0.00 | 0.00 | 0.00 | 80 | 1018.3 |
| 20260504015009 | 47 | 135 | 0.0 | 0.0 | 0.00 | 0.00 | 0.00 | 81 | 1018.2 |
| 20260504014505 | 47 | 135 | 0.0 | 0.0 | 0.00 | 0.00 | 0.00 | 78 | 1018.1 |
| 20260504014002 | 47 | 135 | 0.0 | 0.0 | 0.00 | 0.00 | 0.00 | 76 | 1018.2 |
| 20260504013500 | 48 | 135 | 0.0 | 0.0 | 0.00 | 0.00 | 0.00 | 77 | 1017.9 |
| 20260504012955 | 48 | 135 | 0.0 | 0.0 | 0.00 | 0.00 | 0.00 | 77 | 1018.0 |
| 20260504012454 | 48 | 135 | 0.0 | 0.0 | 0.00 | 0.00 | 0.00 | 75 | 1017.7 |
| 20260504011952 | 49 | 135 | 0.0 | 0.0 | 0.00 | 0.00 | 0.00 | 72 | 1017.7 |
| 20260504011448 | 49 | 135 | 0.0 | 0.0 | 0.00 | 0.00 | 0.00 | 74 | 1017.6 |
| 20260504010944 | 49 | 135 | 0.0 | 0.0 | 0.00 | 0.00 | 0.00 | 72 | 1017.5 |
| 20260504010440 | 50 | 135 | 0.0 | 0.0 | 0.00 | 0.00 | 0.00 | 70 | 1017.6 |
| 20260504005936 | 50 | 135 | 0.0 | 0.0 | 0.00 | 0.00 | 0.00 | 69 | 1017.9 |
| 20260504005433 | 51 | 135 | 0.0 | 0.0 | 0.00 | 0.00 | 0.00 | 68 | 1017.8 |
| 20260504004930 | 51 | 135 | 0.0 | 0.0 | 0.00 | 0.00 | 0.00 | 71 | 1017.5 |
| 20260504004428 | 51 | 135 | 0.0 | 0.0 | 0.00 | 0.00 | 0.00 | 70 | 1017.4 |
| 20260504003925 | 52 | 135 | 0.0 | 0.0 | 0.00 | 0.00 | 0.00 | 73 | 1017.4 |
| 20260504003421 | 53 | 135 | 0.0 | 0.0 | 0.00 | 0.00 | 0.00 | 71 | 1017.3 |
| 20260504002918 | 53 | 135 | 0.0 | 0.0 | 0.00 | 0.00 | 0.00 | 71 | 1017.3 |
| 20260504002415 | 53 | 135 | 0.0 | 0.0 | 0.00 | 0.00 | 0.00 | 67 | 1017.2 |
| 20260504001913 | 54 | 135 | 0.0 | 0.0 | 0.00 | 0.00 | 0.00 | 64 | 1017.2 |
| 20260504001410 | 55 | 135 | 0.0 | 0.0 | 0.00 | 0.00 | 0.00 | 63 | 1017.2 |
| 20260504000906 | 55 | 136 | 0.0 | 0.0 | 0.00 | 0.00 | 0.00 | 63 | 1017.2 |
| 20260504000403 | 55 | 136 | 0.0 | 0.0 | 0.00 | 0.00 | 0.00 | 64 | 1017.3 |
| 20260503235901 | 56 | 136 | 0.0 | 0.0 | 0.00 | 0.00 | 0.00 | 59 | 1017.3 |
| 20260503235359 | 56 | 136 | 0.0 | 1.0 | 0.00 | 0.00 | 0.00 | 61 | 1017.2 |
| 20260503234856 | 57 | 136 | 0.0 | 0.0 | 0.00 | 0.00 | 0.00 | 54 | 1017.2 |
| 20260503234353 | 57 | 136 | 0.0 | 0.0 | 0.00 | 0.00 | 0.00 | 53 | 1017.4 |
| 20260503233851 | 57 | 136 | 0.0 | 0.0 | 0.00 | 0.00 | 0.00 | 55 | 1017.5 |
| 20260503233347 | 58 | 136 | 0.0 | 1.0 | 0.00 | 0.00 | 0.00 | 55 | 1017.6 |
| 20260503232843 | 58 | 136 | 0.0 | 2.0 | 0.00 | 0.00 | 0.00 | 44 | 1017.3 |
| 20260503232341 | 58 | 136 | 0.0 | 0.0 | 0.00 | 0.00 | 0.00 | 49 | 1017.2 |
| 20260503231839 | 58 | 136 | 0.0 | 0.0 | 0.00 | 0.00 | 0.00 | 55 | 1017.3 |
| 20260503231336 | 58 | 136 | 0.0 | 0.0 | 0.00 | 0.00 | 0.00 | 50 | 1017.6 |
| 20260503230832 | 59 | 136 | 1.0 | 2.0 | 0.00 | 0.00 | 0.00 | 55 | 1017.5 |
| 20260503230329 | 60 | 137 | 0.0 | 1.0 | 0.00 | 0.00 | 0.00 | 42 | 1017.4 |
| 20260503225826 | 60 | 137 | 1.0 | 2.0 | 0.00 | 0.00 | 0.00 | 35 | 1017.5 |
| 20260503225322 | 61 | 146 | 0.0 | 1.0 | 0.00 | 0.00 | 0.00 | 35 | 1017.5 |
| 20260503224818 | 61 | 146 | 2.0 | 2.0 | 0.00 | 0.00 | 0.00 | 32 | 1017.6 |
| 20260503224316 | 61 | 174 | 1.0 | 2.0 | 0.00 | 0.00 | 0.00 | 34 | 1017.4 |
| 20260503223814 | 62 | 129 | 1.0 | 2.0 | 0.00 | 0.00 | 0.00 | 37 | 1017.5 |
| 20260503223311 | 61 | 129 | 0.0 | 0.0 | 0.00 | 0.00 | 0.00 | 32 | 1017.7 |
| 20260503222806 | 62 | 129 | 1.0 | 1.0 | 0.00 | 0.00 | 0.00 | 40 | 1017.7 |
| 20260503222305 | 61 | 129 | 0.0 | 1.0 | 0.00 | 0.00 | 0.00 | 41 | 1017.8 |
| 20260503221803 | 62 | 129 | 1.0 | 1.0 | 0.00 | 0.00 | 0.00 | 33 | 1017.7 |
| 20260503221301 | 62 | 129 | 2.0 | 3.0 | 0.00 | 0.00 | 0.00 | 32 | 1017.9 |
| 20260503220757 | 62 | 129 | 0.0 | 1.0 | 0.00 | 0.00 | 0.00 | 32 | 1017.8 |
| 20260503220254 | 62 | 129 | 2.0 | 3.0 | 0.00 | 0.00 | 0.00 | 29 | 1017.8 |
| 20260503215751 | 63 | 150 | 0.0 | 1.0 | 0.00 | 0.00 | 0.00 | 33 | 1017.7 |
| 20260503215248 | 63 | 76 | 1.0 | 3.0 | 0.00 | 0.00 | 0.00 | 31 | 1017.6 |
| 20260503214746 | 62 | 75 | 1.0 | 4.0 | 0.00 | 0.00 | 0.00 | 29 | 1017.7 |
| 20260503214242 | 64 | 223 | 2.0 | 2.0 | 0.00 | 0.00 | 0.00 | 30 | 1017.7 |
| 20260503213740 | 63 | 222 | 1.0 | 2.0 | 0.00 | 0.00 | 0.00 | 29 | 1017.8 |
| 20260503213238 | 65 | 223 | 2.0 | 3.0 | 0.00 | 0.00 | 0.00 | 29 | 1017.9 |
| 20260503212734 | 64 | 332 | 0.0 | 3.0 | 0.00 | 0.00 | 0.00 | 33 | 1017.8 |
| 20260503212232 | 63 | 338 | 1.0 | 2.0 | 0.00 | 0.00 | 0.00 | 36 | 1017.8 |
| 20260503211729 | 64 | 124 | 1.0 | 1.0 | 0.00 | 0.00 | 0.00 | 31 | 1017.9 |
| 20260503211225 | 63 | 124 | 0.0 | 2.0 | 0.00 | 0.00 | 0.00 | 34 | 1018.0 |
| 20260503210721 | 63 | 231 | 2.0 | 4.0 | 0.00 | 0.00 | 0.00 | 29 | 1017.9 |
| 20260503210219 | 63 | 51 | 4.0 | 6.0 | 0.00 | 0.00 | 0.00 | 31 | 1018.1 |
| 20260503205714 | 63 | 36 | 4.0 | 4.0 | 0.00 | 0.00 | 0.00 | 30 | 1018.0 |
| 20260503205210 | 64 | 37 | 4.0 | 6.0 | 0.00 | 0.00 | 0.00 | 31 | 1018.2 |
| 20260503204707 | 64 | 254 | 2.0 | 4.0 | 0.00 | 0.00 | 0.00 | 32 | 1018.2 |
| 20260503204205 | 63 | 84 | 1.0 | 1.0 | 0.00 | 0.00 | 0.00 | 32 | 1018.4 |
| 20260503203701 | 64 | 261 | 2.0 | 2.0 | 0.00 | 0.00 | 0.00 | 31 | 1018.3 |
| 20260503203159 | 62 | 196 | 0.0 | 0.0 | 0.00 | 0.00 | 0.00 | 29 | 1018.3 |
| 20260503202656 | 62 | 79 | 1.0 | 3.0 | 0.00 | 0.00 | 0.00 | 28 | 1018.6 |
| 20260503202154 | 61 | 261 | 4.0 | 4.0 | 0.00 | 0.00 | 0.00 | 30 | 1018.7 |
| 20260503201652 | 61 | 204 | 3.0 | 4.0 | 0.00 | 0.00 | 0.00 | 31 | 1019.0 |
| 20260503201149 | 61 | 105 | 1.0 | 7.0 | 0.00 | 0.00 | 0.00 | 36 | 1018.7 |
| 20260503200645 | 63 | 34 | 2.0 | 3.0 | 0.00 | 0.00 | 0.00 | 32 | 1018.8 |
| 20260503200141 | 62 | 251 | 3.0 | 4.0 | 0.00 | 0.00 | 0.00 | 30 | 1019.1 |
| 20260503195638 | 63 | 50 | 1.0 | 4.0 | 0.00 | 0.00 | 0.00 | 28 | 1019.1 |
| 20260503195135 | 61 | 152 | 3.0 | 4.0 | 0.00 | 0.00 | 0.00 | 30 | 1019.3 |
| 20260503194632 | 61 | 200 | 4.0 | 7.0 | 0.00 | 0.00 | 0.00 | 29 | 1019.4 |
| 20260503194127 | 61 | 199 | 2.0 | 6.0 | 0.00 | 0.00 | 0.00 | 31 | 1019.4 |
| 20260503193625 | 61 | 268 | 2.0 | 4.0 | 0.00 | 0.00 | 0.00 | 30 | 1019.7 |
| 20260503193120 | 62 | 335 | 1.0 | 3.0 | 0.00 | 0.00 | 0.00 | 31 | 1019.7 |
| 20260503192616 | 61 | 112 | 2.0 | 6.0 | 0.00 | 0.00 | 0.00 | 29 | 1019.7 |
| 20260503192112 | 61 | 289 | 0.0 | 2.0 | 0.00 | 0.00 | 0.00 | 30 | 1019.9 |
| 20260503191609 | 61 | 323 | 2.0 | 4.0 | 0.00 | 0.00 | 0.00 | 39 | 1019.9 |
| 20260503191106 | 61 | 108 | 3.0 | 4.0 | 0.00 | 0.00 | 0.00 | 31 | 1019.8 |
| 20260503190603 | 61 | 179 | 1.0 | 6.0 | 0.00 | 0.00 | 0.00 | 34 | 1020.3 |
| 20260503190100 | 61 | 213 | 3.0 | 3.0 | 0.00 | 0.00 | 0.00 | 33 | 1020.1 |
| 20260503185556 | 60 | 193 | 4.0 | 6.0 | 0.00 | 0.00 | 0.00 | 36 | 1020.5 |
| 20260503185056 | 60 | 249 | 2.0 | 3.0 | 0.00 | 0.00 | 0.00 | 35 | 1020.5 |
| 20260503184552 | 61 | 72 | 1.0 | 4.0 | 0.00 | 0.00 | 0.00 | 42 | 1020.4 |
| 20260503184049 | 60 | 182 | 4.0 | 6.0 | 0.00 | 0.00 | 0.00 | 33 | 1020.6 |
| 20260503183545 | 59 | 248 | 2.0 | 3.0 | 0.00 | 0.00 | 0.00 | 38 | 1020.5 |
| 20260503183043 | 59 | 256 | 0.0 | 3.0 | 0.00 | 0.00 | 0.00 | 35 | 1020.6 |
| 20260503182541 | 59 | 194 | 0.0 | 2.0 | 0.00 | 0.00 | 0.00 | 34 | 1020.5 |
| 20260503182038 | 60 | 233 | 3.0 | 6.0 | 0.00 | 0.00 | 0.00 | 34 | 1020.8 |
| 20260503181530 | 60 | 216 | 3.0 | 6.0 | 0.00 | 0.00 | 0.00 | 32 | 1021.0 |
| 20260503181026 | 60 | 287 | 2.0 | 6.0 | 0.00 | 0.00 | 0.00 | 39 | 1020.8 |
| 20260503180524 | 60 | 87 | 1.0 | 3.0 | 0.00 | 0.00 | 0.00 | 33 | 1020.8 |
| 20260503180021 | 60 | 294 | 2.0 | 4.0 | 0.00 | 0.00 | 0.00 | 45 | 1020.7 |
| 20260503175518 | 58 | 205 | 2.0 | 6.0 | 0.00 | 0.00 | 0.00 | 42 | 1020.7 |
| 20260503175015 | 59 | 20 | 0.0 | 2.0 | 0.00 | 0.00 | 0.00 | 36 | 1020.7 |
| 20260503174513 | 58 | 326 | 0.0 | 4.0 | 0.00 | 0.00 | 0.00 | 34 | 1021.1 |
| 20260503174008 | 59 | 294 | 2.0 | 6.0 | 0.00 | 0.00 | 0.00 | 35 | 1020.8 |
| 20260503173503 | 58 | 239 | 2.0 | 3.0 | 0.00 | 0.00 | 0.00 | 34 | 1021.2 |
| 20260503173000 | 57 | 204 | 1.0 | 6.0 | 0.00 | 0.00 | 0.00 | 33 | 1021.3 |
| 20260503172458 | 58 | 256 | 4.0 | 6.0 | 0.00 | 0.00 | 0.00 | 35 | 1021.2 |
| 20260503171954 | 57 | 233 | 2.0 | 4.0 | 0.00 | 0.00 | 0.00 | 39 | 1021.5 |
| 20260503171451 | 57 | 36 | 1.0 | 4.0 | 0.00 | 0.00 | 0.00 | 40 | 1021.7 |
| 20260503170948 | 57 | 267 | 2.0 | 4.0 | 0.00 | 0.00 | 0.00 | 35 | 1021.6 |
| 20260503170444 | 58 | 258 | 3.0 | 3.0 | 0.00 | 0.00 | 0.00 | 40 | 1021.6 |
| 20260503150836 | 51 | 186 | 2.0 | 3.0 | 0.00 | 0.00 | 0.00 | 43 | 1022.8 |
| 20260503150332 | 53 | 161 | 3.0 | 4.0 | 0.00 | 0.00 | 0.00 | 42 | 1022.9 |
| 20260503140257 | 47 | 81 | 1.0 | 2.0 | 0.00 | 0.00 | 0.00 | 64 | 1023.2 |
| 20260503131227 | 39 | 41 | 1.0 | 2.0 | 0.00 | 0.00 | 0.00 | 93 | 1023.1 |
| 20260503130724 | 38 | 41 | 1.0 | 2.0 | 0.00 | 0.00 | 0.00 | 94 | 1023.4 |
| 20260503130221 | 37 | 41 | 1.0 | 2.0 | 0.00 | 0.00 | 0.00 | 95 | 1023.2 |
| 20260503120147 | 35 | 41 | 0.0 | 0.0 | 0.00 | 0.00 | 0.00 | 98 | 1022.9 |
| 20260503110615 | 33 | 41 | 0.0 | 0.0 | 0.00 | 0.00 | 0.00 | 99 | 1022.1 |
| 20260503110112 | 33 | 41 | 0.0 | 0.0 | 0.00 | 0.00 | 0.00 | 99 | 1022.1 |
| 20260503090501 | 34 | 41 | 0.0 | 0.0 | 0.00 | 0.00 | 0.00 | 99 | 1021.3 |
| 20260503081428 | 35 | 41 | 0.0 | 0.0 | 0.00 | 0.00 | 0.00 | 98 | 1020.6 |
| 20260503080925 | 35 | 41 | 0.0 | 0.0 | 0.00 | 0.00 | 0.00 | 98 | 1020.5 |
| 20260503080421 | 35 | 41 | 0.0 | 0.0 | 0.00 | 0.00 | 0.00 | 98 | 1020.6 |
| 20260503072858 | 36 | 41 | 0.0 | 0.0 | 0.00 | 0.00 | 0.00 | 97 | 1020.4 |
| 20260503072355 | 36 | 41 | 0.0 | 0.0 | 0.00 | 0.00 | 0.00 | 97 | 1020.4 |
| 20260503071851 | 36 | 41 | 0.0 | 0.0 | 0.00 | 0.00 | 0.00 | 97 | 1020.0 |
| 20260503071349 | 37 | 41 | 0.0 | 0.0 | 0.00 | 0.00 | 0.00 | 96 | 1020.2 |
| 20260503070844 | 37 | 41 | 0.0 | 0.0 | 0.00 | 0.00 | 0.00 | 96 | 1020.1 |
| 20260503070343 | 37 | 41 | 0.0 | 0.0 | 0.00 | 0.00 | 0.00 | 96 | 1020.0 |
| 20260503060303 | 39 | 41 | 0.0 | 0.0 | 0.00 | 0.00 | 0.00 | 93 | 1019.9 |